Punta Gorda, FL

11:53 PM EDT on June 22, 2017 (GMT -0400)
Charlotte County

Weather History for KPGD - August, 2014

Change the Weather History Date:

Friday, August 15, 2014

  Actual Average Record
Temperature  
Mean Temperature 83 °F -  
Max Temperature 91 °F 88 °F 95 °F (1998)
Min Temperature 75 °F 72 °F 72 °F (2015)
Cooling Degree Days 18    
Growing Degree Days 33 (Base 50)    
Moisture  
Dew Point 74 °F    
Average Humidity 79    
Maximum Humidity 94    
Minimum Humidity 61    
Precipitation  
Precipitation 0.06 in - - ()
Sea Level Pressure  
Sea Level Pressure 30.05 in    
Wind  
Wind Speed 7 mph (SW)    
Max Wind Speed 16 mph    
Max Gust Speed 28 mph    
Visibility 9 miles    
Events Rain , Thunderstorm    
Averages and records for this station are not official NWS values.
T = Trace of Precipitation, MM = Missing Value Source: NWS Daily Summary

Daily Weather History Graph

Daily Weather History Graph

Search for Another Location

Airport or City:

Trip Planner

Search our weather history database for the weather conditions in past years. The results will help you decide how hot, cold, wet, or windy it might be!

Date:

Astronomy

Aug. 15, 2014 Rise Set
Actual Time 6:59 AM EDT 8:04 PM EDT
Civil Twilight 6:35 AM EDT 8:29 PM EDT
Nautical Twilight 6:06 AM EDT 8:57 PM EDT
Astronomical Twilight 5:36 AM EDT 9:27 PM EDT
Moon 11:43 PM EDT (8/15) 12:05 PM EDT (8/15)
Length of Visible Light 13h 54m
Length of Day
13h 05m
Waning Gibbous, 69% of the Moon is Illuminated
Aug 15
Waning Gibbous
Aug 17
Last Quarter
Aug 25
New
Sep 2
First Quarter
Sep 8
Full

Hourly Weather History & Observations

Time (EDT) Temp. Heat Index Dew Point Humidity Pressure Visibility Wind Dir Wind Speed Gust Speed Precip Events Conditions
12:53 AM 78.1 °F - 75.0 °F 90% 30.04 in 10.0 mi SE 5.8 mph - N/A   Clear
1:53 AM 78.1 °F - 75.0 °F 90% 30.02 in 10.0 mi SSE 5.8 mph - N/A   Clear
2:53 AM 79.0 °F - 75.9 °F 90% 30.01 in 10.0 mi SSE 5.8 mph - N/A   Clear
3:53 AM 79.0 °F - 75.0 °F 88% 30.00 in 10.0 mi SSE 5.8 mph - N/A   Clear
4:53 AM 79.0 °F - 75.0 °F 88% 30.02 in 10.0 mi South 4.6 mph - N/A   Clear
5:53 AM 78.1 °F - 75.0 °F 90% 30.02 in 10.0 mi SSE 5.8 mph - N/A   Partly Cloudy
6:53 AM 79.0 °F - 75.0 °F 88% 30.03 in 10.0 mi South 3.5 mph - N/A   Clear
7:53 AM 82.0 °F 89.4 °F 75.9 °F 82% 30.04 in 10.0 mi SSW 3.5 mph - N/A   Clear
8:53 AM 86.0 °F 96.9 °F 77.0 °F 74% 30.06 in 10.0 mi Calm Calm - N/A   Partly Cloudy
9:25 AM 87.1 °F 97.3 °F 75.9 °F 69% 30.05 in 10.0 mi WSW 9.2 mph - N/A Thunderstorm Partly Cloudy
9:53 AM 86.0 °F 96.9 °F 77.0 °F 74% 30.07 in 10.0 mi WNW 12.7 mph - 0.00 in   Scattered Clouds
10:11 AM 86.0 °F 93.8 °F 73.9 °F 67% 30.06 in 10.0 mi WNW 10.4 mph - N/A Thunderstorm Mostly Cloudy
10:24 AM 84.9 °F 92.1 °F 73.9 °F 69% 30.07 in 10.0 mi West 10.4 mph - N/A Thunderstorm Thunderstorm
10:44 AM 84.9 °F 94.1 °F 75.9 °F 74% 30.08 in 10.0 mi West 6.9 mph - N/A Thunderstorm Clear
10:53 AM 84.9 °F 93.3 °F 75.0 °F 72% 30.09 in 10.0 mi West 10.4 mph - N/A Thunderstorm Clear
11:08 AM 84.0 °F 91.2 °F 73.9 °F 72% 30.08 in 10.0 mi WNW 8.1 mph - N/A   Clear
11:53 AM 84.9 °F 92.1 °F 73.9 °F 69% 30.08 in 10.0 mi Calm Calm - N/A   Clear
12:53 PM 88.0 °F 96.5 °F 73.9 °F 63% 30.06 in 10.0 mi WSW 10.4 mph - N/A   Clear
1:53 PM 91.0 °F 102.9 °F 75.9 °F 61% 30.04 in 10.0 mi WNW 12.7 mph - N/A   Partly Cloudy
2:11 PM 91.0 °F 102.9 °F 75.9 °F 61% 30.04 in 10.0 mi WNW 15.0 mph 20.7 mph N/A Thunderstorm Partly Cloudy
2:27 PM 84.0 °F 90.2 °F 73.0 °F 69% 30.04 in 10.0 mi NW 16.1 mph 27.6 mph N/A   Mostly Cloudy
2:32 PM 84.0 °F 89.6 °F 72.0 °F 67% 30.04 in 10.0 mi WNW 13.8 mph - N/A Thunderstorm Thunderstorm
2:53 PM 80.1 °F 84.5 °F 73.9 °F 81% 30.03 in 3.0 mi West 6.9 mph - 0.03 in Rain , Thunderstorm Thunderstorms and Rain
3:08 PM 80.1 °F 84.5 °F 73.9 °F 81% 30.03 in 9.0 mi WNW 6.9 mph - 0.01 in Rain Light Rain
3:53 PM 82.9 °F 90.2 °F 75.0 °F 77% 30.04 in 10.0 mi NNW 3.5 mph - 0.01 in   Clear
4:53 PM 84.9 °F 92.1 °F 73.9 °F 69% 30.04 in 10.0 mi Variable 3.5 mph - N/A   Scattered Clouds
5:22 PM 84.0 °F 91.9 °F 75.0 °F 74% 30.05 in 10.0 mi NW 13.8 mph - N/A Thunderstorm Overcast
5:45 PM 79.0 °F - 71.1 °F 77% 30.06 in 2.5 mi North 6.9 mph - 0.00 in Rain , Thunderstorm Light Thunderstorms and Rain
5:53 PM 78.1 °F - 71.1 °F 79% 30.06 in 1.8 mi NNE 8.1 mph - 0.00 in Rain , Thunderstorm Light Thunderstorms and Rain
5:55 PM 77.0 °F - 71.1 °F 82% 30.05 in 4.0 mi NNE 6.9 mph - 0.00 in Rain , Thunderstorm Light Rain
6:15 PM 75.9 °F - 72.0 °F 87% 30.08 in 2.5 mi SE 8.1 mph - 0.00 in Thunderstorm Scattered Clouds
6:23 PM 75.9 °F - 72.0 °F 87% 30.08 in 10.0 mi SE 4.6 mph - 0.00 in Thunderstorm Mostly Cloudy
6:53 PM 75.9 °F - 72.0 °F 87% 30.08 in 10.0 mi SSE 4.6 mph - 0.00 in Rain , Thunderstorm Light Rain
7:00 PM 75.9 °F - 72.0 °F 87% 30.07 in 10.0 mi SE 4.6 mph - 0.01 in Rain Light Rain
7:53 PM 75.9 °F - 73.9 °F 94% 30.06 in 10.0 mi South 8.1 mph - 0.02 in Rain Light Rain
8:53 PM 75.0 °F - 73.0 °F 94% 30.04 in 10.0 mi South 8.1 mph - 0.00 in   Clear
9:53 PM 75.0 °F - 72.0 °F 90% 30.04 in 10.0 mi South 4.6 mph - N/A   Clear
10:53 PM 75.0 °F - 72.0 °F 90% 30.06 in 10.0 mi South 5.8 mph - N/A   Clear
11:53 PM 75.9 °F - 73.0 °F 91% 30.07 in 10.0 mi South 3.5 mph - N/A   Clear